Tracking 28915 objects as of 29-May-2024
HD Live streaming from Space Station
objects crossing your sky now

SL-3 DEB

Track SL-3 DEB now!
10-day predictions


NORAD ID: 14631
Int'l Code: 1983-075E
Perigee: 318.4 km
Apogee: 325.5 km
Inclination: 97.8 °
Period: 90.8 minutes
Semi major axis: 6692 km
RCS: 0.045 m2 (small)
Launch date: July 24, 1983
Source: Commonwealth of Independent States (former USSR) (CIS)
Launch site: TYURATAM MISSILE AND SPACE COMPLEX (TTMTR)

Note: This is SATELLITE DEBRIS
Your satellite tracking list
Your tracking list is empty




NASA's NSSDC Master Catalog

Two Line Element Set (TLE):
1 14631U 83075E   24150.51659330  .00127206  00000-0  52493-3 0  9996
2 14631  97.7797 180.9048 0005273 156.2116 203.9398 15.85540573230228
Source of the keplerian elements: AFSPC